Regional Weather Roundup
Issued by NWS

Home | Current Version | Previous Version | Text Only | Print | Product List | Glossary Off
Versions: 1 2 3 4 5 6 7 8 9 10 11 12 13 14 15 16 17 18 19 20 21 22 23 24 25 26 27 28 29 30 31 32 33 34 35 36 37 38 39 40 41 42 43 44 45 46 47 48 49 50

000
ASUS45 KBOU 280307
RWRCO

WEATHER ROUNDUP FOR COLORADO
NATIONAL WEATHER SERVICE DENVER/BOULDER CO
900 PM MDT FRI MAY 27 2016

NOTE: "FAIR" INDICATES FEW OR NO CLOUDS BELOW 12000 FEET WITH NO
SIGNIFICANT WEATHER AND/OR OBSTRUCTIONS TO VISIBILITY.

COZ001>005-013-030-031-280400-
...NORTHWEST COLORADO...

CITY           SKY/WX    TMP DP  RH WIND       PRES   REMARKS
CRAIG          MOCLDY    48  41  76 E10       30.01R
HAYDEN         FAIR      45  37  76 SE7       30.03R
MEEKER         FAIR      46  40  79 NE3       30.02R
MOUNT WERNER   NOT AVBL
STEAMBOAT SPGS CLOUDY    44  40  85 CALM      30.04R
WALDEN         FAIR      39  34  81 SE6       30.07S
$$

COZ006>008-011-280400-
...WEST CENTRAL VALLEYS...

CITY           SKY/WX    TMP DP  RH WIND       PRES   REMARKS
GRAND JUNCTION MOCLDY    53  47  79 NE10      29.98R
MONTROSE       FAIR      56  32  40 S3        29.99R
EAGLE          FAIR      46  41  81 E3        30.06R
RIFLE          FAIR      54  38  54 NE3       30.00R
DELTA          FAIR      59  36  41 E5        29.97R
NUCLA          MOCLDY    59  32  36 E8        30.00R
$$

COZ017>023-064>068-280400-
...SOUTHWEST COLORADO...

CITY           SKY/WX    TMP DP  RH WIND       PRES   REMARKS
DURANGO        FAIR      50  32  50 N5        30.00R
CORTEZ         FAIR      55  33  43 NE9       29.97R
PAGOSA SPRINGS FAIR      43  39  88 N5        30.07S
TELLURIDE      MOCLDY    42  33  68 CALM      30.14R
WOLF CREEK PAS   N/A     28  28 100 SW5       30.25R WCI  23
$$

COZ009-010-012-014-032>034-037-058>063-280400-
...CENTRAL COLORADO...

CITY           SKY/WX    TMP DP  RH WIND       PRES   REMARKS
ASPEN          FAIR      43  35  73 S5        30.07R
BUENA VISTA    FAIR      44  32  63 NW15G21   30.05R
COPPER MTN     NOT AVBL
BERTHOUD PASS  HVY SNOW  25  16  68 MISG      30.18R VSB<1/4
COTTONWOOD PAS FAIR      43  27  52 W8        30.12R
GUNNISON       FAIR      45  36  70 CALM      30.09R
KREMMLING      FAIR      43  34  70 SW3       30.07R
LEADVILLE      LGT SNOW  33  31  92 N5        30.13R FOG     WCI  29
SALIDA         FAIR      49  35  58 CALM      30.12R
SUNLIGHT       FAIR      36  30  80 NW3       30.21R
WILKERSON PASS FAIR      32  30  93 W6        30.18R WCI  26
$$

COZ069>075-280400-
...SAN LUIS VALLEY/SANGRE DE CRISTO MOUNTAINS...

CITY           SKY/WX    TMP DP  RH WIND       PRES   REMARKS
ALAMOSA        FAIR      43  39  86 CALM      30.06R
LA VETA PASS   CLOUDY    34  32  93 S9G22     30.13R FOG     WCI  26
SAGUACHE       FAIR      43  32  65 NW7       30.07R
$$

COZ035-036-038>040-280400-
...NORTHERN COLORADO FRONT RANGE...

CITY           SKY/WX    TMP DP  RH WIND       PRES   REMARKS
DENVER INTL AP MOCLDY    52  43  71 NW7       29.96R
DMNS CITY PARK   N/A     51  39  62 CALM      29.97R
AURORA         MOCLDY    49  43  80 SW5       29.98R
FRONT RANGE AP MOCLDY    48  45  87 NW5       29.97R
ERIE MUNI ARPT FAIR      49  44  83 CALM      29.96R
BOULDER MUN AP FAIR      52  45  76 CALM      29.96R
CENTENNIAL     FAIR      47  40  76 W7        29.97R
BROOMFIELD     PTCLDY    48  41  76 W5        29.97S
FORT COLLINS   FAIR      52  45  76 W8        29.96S
LONGMONT       DRIZZLE   53  48  84 W3        29.98R
$$

COZ041-046-047-076>085-087-088-280400-
...PIKES PEAK/PALMER DIVIDE AND SOUTHERN FOOTHILLS...

CITY           SKY/WX    TMP DP  RH WIND       PRES   REMARKS
COLO. SPRINGS  MOCLDY    51  38  60 NW8       29.99R
A. F. ACADEMY  FAIR      45  39  81 N3        29.99R
SCHRIEVER AFB  NOT AVBL
ELLICOTT       FAIR     N/A N/A N/A N5        29.97R
FALCON         FAIR      45  38  78 NW5       30.02R
FORT CARSON    MOCLDY    52  37  57 NW5       29.97R
LIMON          FAIR      45  42  89 NW8       29.94R
MONUMENT HILL  FAIR      39  37  93 NW7       30.02R
TRINIDAD       FAIR      51  42  71 NE5       29.99R
$$

COZ042>045-048>051-090-091-280400-
...NORTHEAST COLORADO...

CITY           SKY/WX    TMP DP  RH WIND       PRES   REMARKS
GREELEY ARPT   FAIR      54  46  76 CALM      29.94S
AKRON          FAIR      48  45  89 NW10      29.90R
BURLINGTON     FAIR      48  45  89 NW8       29.87R
WRAY           NOT AVBL
STERLING       FAIR      50  46  87 N3        29.87R
HOLYOKE        FAIR      54  50  87 N8        29.85R
FORT MORGAN    FAIR      48  44  85 NW5       29.93R
$$

COZ086-089-092>099-280400-
...SOUTHEAST COLORADO...

CITY           SKY/WX    TMP DP  RH WIND       PRES   REMARKS
PUEBLO         FAIR      56  45  66 S5        29.95R
LA JUNTA       FAIR      52  46  80 W5        29.92R
LAMAR          FAIR      50  45  83 W6        29.86R
SPRINGFIELD      N/A     50  41  71 W12       29.90R
$$



USA.gov is the U.S. government's official web portal to all federal, state and local government web resources and services.